Time,TemperatureF,DewpointF,PressureIn,WindDirection,WindDirectionDegrees,WindSpeedMPH,WindSpeedGustMPH,Humidity,HourlyPrecipIn,Conditions,Clouds,dailyrainin,SoftwareType,DateUTC
2013-05-02 00:01:00,67.6,66.7,29.82,ENE,58,0.0,0.0,97,0.01,,---,0.02,VWS V13.01,2013-05-02 04:01:00,
2013-05-02 00:02:00,67.6,66.7,29.83,ENE,57,0.0,0.0,97,0.01,,---,0.02,VWS V13.01,2013-05-02 04:02:00,
2013-05-02 00:07:00,67.6,66.7,29.83,ENE,58,0.0,0.0,97,0.01,,---,0.00,VWS V13.01,2013-05-02 04:07:00,
2013-05-02 00:12:00,67.6,66.7,29.83,ENE,57,0.0,0.0,97,0.01,,---,0.00,VWS V13.01,2013-05-02 04:12:00,
2013-05-02 00:17:00,67.6,66.7,29.83,ENE,58,0.0,0.0,97,0.01,,---,0.00,VWS V13.01,2013-05-02 04:17:00,
2013-05-02 00:22:00,67.6,66.7,29.83,ENE,57,0.0,0.0,97,0.01,,---,0.00,VWS V13.01,2013-05-02 04:22:00,
2013-05-02 00:27:00,67.7,66.8,29.83,ENE,58,0.0,0.0,97,0.01,,---,0.00,VWS V13.01,2013-05-02 04:27:00,
2013-05-02 00:32:00,67.7,66.8,29.83,ENE,58,0.0,0.0,97,0.01,,---,0.00,VWS V13.01,2013-05-02 04:32:00,
2013-05-02 00:37:00,67.7,66.8,29.82,ENE,57,0.0,0.0,97,0.01,,---,0.00,VWS V13.01,2013-05-02 04:37:00,
2013-05-02 00:42:00,67.7,66.8,29.82,ENE,58,0.0,0.0,97,0.01,,---,0.00,VWS V13.01,2013-05-02 04:42:00,
2013-05-02 00:47:00,67.7,66.8,29.83,ENE,58,0.0,0.0,97,0.01,,---,0.00,VWS V13.01,2013-05-02 04:47:00,
2013-05-02 00:52:00,67.8,66.9,29.82,ENE,57,0.0,0.0,97,0.01,,---,0.00,VWS V13.01,2013-05-02 04:52:00,
2013-05-02 00:57:00,67.8,66.9,29.82,ENE,58,0.0,0.0,97,0.00,,---,0.00,VWS V13.01,2013-05-02 04:57:00,
2013-05-02 01:02:00,67.8,66.9,29.82,ENE,58,0.0,1.0,97,0.00,,---,0.00,VWS V13.01,2013-05-02 05:02:00,
2013-05-02 01:07:00,67.8,66.9,29.82,ENE,58,0.0,0.0,97,0.00,,---,0.00,VWS V13.01,2013-05-02 05:07:00,
2013-05-02 01:12:00,67.8,66.9,29.82,ENE,58,0.0,0.0,97,0.00,,---,0.00,VWS V13.01,2013-05-02 05:12:00,
2013-05-02 01:17:00,67.6,66.7,29.82,SSE,149,0.0,1.0,97,0.00,,---,0.00,VWS V13.01,2013-05-02 05:17:00,
2013-05-02 01:22:00,67.5,66.6,29.82,SSE,149,0.0,1.0,97,0.00,,---,0.00,VWS V13.01,2013-05-02 05:22:00,
2013-05-02 01:27:00,66.4,65.5,29.81,ESE,102,0.0,6.0,97,0.00,,---,0.00,VWS V13.01,2013-05-02 05:27:00,
2013-05-02 01:32:00,65.3,64.1,29.81,ESE,114,0.0,6.0,96,0.00,,---,0.00,VWS V13.01,2013-05-02 05:32:00,
2013-05-02 01:37:00,65.0,63.8,29.81,ENE,69,0.0,2.0,96,0.00,,---,0.00,VWS V13.01,2013-05-02 05:37:00,
2013-05-02 01:42:00,65.0,63.8,29.81,ENE,69,0.0,2.0,96,0.00,,---,0.00,VWS V13.01,2013-05-02 05:42:00,
2013-05-02 01:47:00,65.1,63.9,29.80,ENE,69,0.0,0.0,96,0.00,,---,0.00,VWS V13.01,2013-05-02 05:47:00,
2013-05-02 01:52:00,65.3,64.1,29.80,ESE,110,3.0,4.0,96,0.00,,---,0.00,VWS V13.01,2013-05-02 05:52:00,
2013-05-02 01:57:00,65.7,64.5,29.80,SE,130,0.0,1.0,96,0.00,,---,0.00,VWS V13.01,2013-05-02 05:57:00,
2013-05-02 02:02:00,65.9,64.7,29.80,ESE,102,0.0,5.0,96,0.00,,---,0.00,VWS V13.01,2013-05-02 06:02:00,
2013-05-02 02:07:00,65.9,64.7,29.80,East,86,0.0,4.0,96,0.00,,---,0.00,VWS V13.01,2013-05-02 06:07:00,
2013-05-02 02:12:00,65.6,64.4,29.80,East,92,0.0,4.0,96,0.00,,---,0.00,VWS V13.01,2013-05-02 06:12:00,
2013-05-02 02:17:00,65.4,63.9,29.80,East,93,0.0,1.0,95,0.00,,---,0.00,VWS V13.01,2013-05-02 06:17:00,
2013-05-02 02:22:00,65.2,63.7,29.80,ESE,116,0.0,1.0,95,0.00,,---,0.00,VWS V13.01,2013-05-02 06:22:00,
2013-05-02 02:27:00,64.8,63.3,29.80,ESE,105,0.0,4.0,95,0.00,,---,0.00,VWS V13.01,2013-05-02 06:27:00,
2013-05-02 02:32:00,64.6,63.1,29.79,ESE,107,0.0,4.0,95,0.00,,---,0.00,VWS V13.01,2013-05-02 06:32:00,
2013-05-02 02:37:00,64.5,63.0,29.79,ESE,109,0.0,0.0,95,0.00,,---,0.00,VWS V13.01,2013-05-02 06:37:00,
2013-05-02 02:42:00,64.4,62.9,29.79,ESE,112,0.0,1.0,95,0.00,,---,0.00,VWS V13.01,2013-05-02 06:42:00,
2013-05-02 02:47:00,64.4,63.2,29.79,ESE,111,0.0,0.0,96,0.00,,---,0.00,VWS V13.01,2013-05-02 06:47:00,
2013-05-02 02:52:00,64.3,63.1,29.79,ESE,108,0.0,2.0,96,0.00,,---,0.00,VWS V13.01,2013-05-02 06:52:00,
2013-05-02 02:57:00,64.3,63.1,29.79,ESE,108,0.0,0.0,96,0.00,,---,0.00,VWS V13.01,2013-05-02 06:57:00,
2013-05-02 03:02:00,64.2,63.0,29.79,ESE,107,0.0,0.0,96,0.00,,---,0.00,VWS V13.01,2013-05-02 07:02:00,
2013-05-02 03:07:00,64.2,63.0,29.79,ESE,108,0.0,0.0,96,0.00,,---,0.00,VWS V13.01,2013-05-02 07:07:00,
2013-05-02 03:12:00,64.1,62.9,29.79,ESE,121,0.0,4.0,96,0.00,,---,0.00,VWS V13.01,2013-05-02 07:12:00,
2013-05-02 03:17:00,64.1,62.9,29.79,ESE,122,0.0,0.0,96,0.00,,---,0.00,VWS V13.01,2013-05-02 07:17:00,
2013-05-02 03:22:00,64.0,62.8,29.79,ESE,117,0.0,4.0,96,0.00,,---,0.00,VWS V13.01,2013-05-02 07:22:00,
2013-05-02 03:27:00,63.9,62.7,29.79,ESE,119,0.0,0.0,96,0.00,,---,0.00,VWS V13.01,2013-05-02 07:27:00,
2013-05-02 03:32:00,63.9,62.7,29.79,ESE,117,0.0,0.0,96,0.00,,---,0.00,VWS V13.01,2013-05-02 07:32:00,
2013-05-02 03:37:00,63.8,62.6,29.79,East,86,0.0,0.0,96,0.00,,---,0.00,VWS V13.01,2013-05-02 07:37:00,
2013-05-02 03:42:00,63.7,62.5,29.78,East,86,0.0,0.0,96,0.00,,---,0.00,VWS V13.01,2013-05-02 07:42:00,
2013-05-02 03:47:00,63.6,62.4,29.78,East,83,1.0,3.0,96,0.00,,---,0.00,VWS V13.01,2013-05-02 07:47:00,
2013-05-02 03:52:00,63.6,62.4,29.78,East,83,0.0,3.0,96,0.00,,---,0.00,VWS V13.01,2013-05-02 07:52:00,
2013-05-02 03:57:00,63.7,62.8,29.78,East,83,0.0,0.0,97,0.00,,---,0.00,VWS V13.01,2013-05-02 07:57:00,
2013-05-02 04:02:00,63.7,62.8,29.78,East,82,0.0,1.0,97,0.00,,---,0.00,VWS V13.01,2013-05-02 08:02:00,
2013-05-02 04:07:00,63.7,62.8,29.78,East,82,0.0,0.0,97,0.00,,---,0.00,VWS V13.01,2013-05-02 08:07:00,
2013-05-02 04:12:00,63.8,62.9,29.78,East,82,0.0,0.0,97,0.00,,---,0.00,VWS V13.01,2013-05-02 08:12:00,
2013-05-02 04:17:00,63.8,62.9,29.78,East,82,0.0,0.0,97,0.00,,---,0.00,VWS V13.01,2013-05-02 08:17:00,
2013-05-02 04:22:00,63.9,63.0,29.77,East,82,0.0,0.0,97,0.00,,---,0.00,VWS V13.01,2013-05-02 08:22:00,
2013-05-02 04:27:00,64.0,63.1,29.77,East,82,0.0,0.0,97,0.00,,---,0.00,VWS V13.01,2013-05-02 08:27:00,
2013-05-02 04:32:00,64.1,63.2,29.77,East,82,0.0,0.0,97,0.00,,---,0.00,VWS V13.01,2013-05-02 08:32:00,
2013-05-02 04:37:00,64.2,63.3,29.77,East,82,0.0,0.0,97,0.00,,---,0.00,VWS V13.01,2013-05-02 08:37:00,
2013-05-02 04:42:00,64.3,63.4,29.77,East,82,0.0,0.0,97,0.00,,---,0.00,VWS V13.01,2013-05-02 08:42:00,
2013-05-02 04:47:00,64.3,63.4,29.77,East,82,0.0,0.0,97,0.00,,---,0.00,VWS V13.01,2013-05-02 08:47:00,
2013-05-02 04:52:00,64.4,63.5,29.77,East,82,0.0,0.0,97,0.00,,---,0.00,VWS V13.01,2013-05-02 08:52:00,
2013-05-02 04:57:00,64.4,63.5,29.78,East,82,0.0,0.0,97,0.00,,---,0.00,VWS V13.01,2013-05-02 08:57:00,
2013-05-02 05:02:00,64.5,63.6,29.77,East,82,0.0,0.0,97,0.00,,---,0.00,VWS V13.01,2013-05-02 09:02:00,
2013-05-02 05:07:00,64.6,63.7,29.77,East,82,0.0,0.0,97,0.00,,---,0.00,VWS V13.01,2013-05-02 09:07:00,
2013-05-02 05:12:00,64.6,63.7,29.78,East,82,0.0,0.0,97,0.00,,---,0.00,VWS V13.01,2013-05-02 09:12:00,
2013-05-02 05:17:00,64.7,63.8,29.77,ENE,78,0.0,0.0,97,0.00,,---,0.00,VWS V13.01,2013-05-02 09:17:00,
2013-05-02 05:22:00,64.7,63.8,29.77,ENE,76,0.0,4.0,97,0.00,,---,0.00,VWS V13.01,2013-05-02 09:22:00,
2013-05-02 05:27:00,64.8,63.9,29.78,ENE,77,0.0,0.0,97,0.00,,---,0.00,VWS V13.01,2013-05-02 09:27:00,
2013-05-02 05:32:00,64.8,63.9,29.77,ENE,77,0.0,0.0,97,0.00,,---,0.00,VWS V13.01,2013-05-02 09:32:00,
2013-05-02 05:37:00,64.8,63.9,29.78,ENE,77,0.0,0.0,97,0.00,,---,0.00,VWS V13.01,2013-05-02 09:37:00,
2013-05-02 05:42:00,64.8,63.9,29.77,ENE,77,0.0,0.0,97,0.00,,---,0.00,VWS V13.01,2013-05-02 09:42:00,
2013-05-02 05:47:00,64.9,64.0,29.78,ENE,77,0.0,0.0,97,0.00,,---,0.00,VWS V13.01,2013-05-02 09:47:00,
2013-05-02 05:52:00,64.9,64.0,29.78,ENE,77,0.0,1.0,97,0.00,,---,0.00,VWS V13.01,2013-05-02 09:52:00,
2013-05-02 05:57:00,64.9,64.0,29.78,ENE,77,0.0,0.0,97,0.00,,---,0.00,VWS V13.01,2013-05-02 09:57:00,
2013-05-02 06:02:00,65.0,64.1,29.78,ENE,76,0.0,0.0,97,0.00,,---,0.00,VWS V13.01,2013-05-02 10:02:00,
2013-05-02 06:07:00,65.0,64.1,29.78,ENE,76,0.0,0.0,97,0.00,,---,0.00,VWS V13.01,2013-05-02 10:07:00,
2013-05-02 06:12:00,65.0,64.1,29.78,ENE,77,0.0,0.0,97,0.00,,---,0.00,VWS V13.01,2013-05-02 10:12:00,
2013-05-02 06:17:00,65.0,64.1,29.78,ENE,77,0.0,0.0,97,0.00,,---,0.00,VWS V13.01,2013-05-02 10:17:00,
2013-05-02 06:22:00,65.0,64.1,29.78,ENE,77,0.0,0.0,97,0.00,,---,0.00,VWS V13.01,2013-05-02 10:22:00,
2013-05-02 06:27:00,65.0,64.1,29.77,ENE,76,0.0,0.0,97,0.00,,---,0.00,VWS V13.01,2013-05-02 10:27:00,
2013-05-02 06:32:00,65.0,64.1,29.78,ENE,76,0.0,0.0,97,0.00,,---,0.00,VWS V13.01,2013-05-02 10:32:00,
2013-05-02 06:37:00,65.0,64.1,29.78,ENE,77,0.0,0.0,97,0.00,,---,0.00,VWS V13.01,2013-05-02 10:37:00,
2013-05-02 06:42:00,65.0,64.1,29.78,ENE,76,0.0,0.0,97,0.00,,---,0.00,VWS V13.01,2013-05-02 10:42:00,
2013-05-02 06:47:00,65.1,64.2,29.78,ENE,77,0.0,0.0,97,0.00,,---,0.00,VWS V13.01,2013-05-02 10:47:00,
2013-05-02 06:52:00,65.1,64.2,29.77,ENE,77,0.0,0.0,97,0.00,,---,0.00,VWS V13.01,2013-05-02 10:52:00,
2013-05-02 06:57:00,65.0,64.1,29.77,ENE,76,0.0,0.0,97,0.00,,---,0.00,VWS V13.01,2013-05-02 10:57:00,
2013-05-02 07:02:00,65.0,64.1,29.77,ENE,77,0.0,0.0,97,0.00,,---,0.00,VWS V13.01,2013-05-02 11:02:00,
2013-05-02 07:07:00,65.0,64.1,29.78,ENE,77,0.0,0.0,97,0.00,,---,0.00,VWS V13.01,2013-05-02 11:07:00,
2013-05-02 07:12:00,65.0,64.1,29.77,ENE,77,0.0,0.0,97,0.00,,---,0.00,VWS V13.01,2013-05-02 11:12:00,
2013-05-02 07:17:00,65.0,64.1,29.78,ENE,77,0.0,0.0,97,0.00,,---,0.00,VWS V13.01,2013-05-02 11:17:00,
2013-05-02 07:22:00,65.1,64.2,29.78,SE,126,0.0,0.0,97,0.00,,---,0.00,VWS V13.01,2013-05-02 11:22:00,
2013-05-02 07:27:00,65.2,64.3,29.78,SE,126,0.0,0.0,97,0.00,,---,0.00,VWS V13.01,2013-05-02 11:27:00,
2013-05-02 07:32:00,65.3,64.4,29.78,ENE,59,0.0,0.0,97,0.00,,---,0.00,VWS V13.01,2013-05-02 11:32:00,
2013-05-02 07:37:00,65.3,64.4,29.78,ENE,59,0.0,0.0,97,0.00,,---,0.00,VWS V13.01,2013-05-02 11:37:00,
2013-05-02 07:42:00,65.3,64.4,29.78,ENE,59,0.0,0.0,97,0.00,,---,0.00,VWS V13.01,2013-05-02 11:42:00,
2013-05-02 07:47:00,65.4,64.5,29.78,ENE,59,0.0,0.0,97,0.00,,---,0.00,VWS V13.01,2013-05-02 11:47:00,
2013-05-02 07:52:00,65.4,64.5,29.78,ENE,59,0.0,0.0,97,0.00,,---,0.00,VWS V13.01,2013-05-02 11:52:00,
2013-05-02 07:57:00,65.5,64.6,29.78,ENE,59,0.0,0.0,97,0.00,,---,0.00,VWS V13.01,2013-05-02 11:57:00,
2013-05-02 08:02:00,65.6,64.7,29.79,ENE,59,0.0,0.0,97,0.00,,---,0.00,VWS V13.01,2013-05-02 12:02:00,
2013-05-02 08:07:00,65.7,64.8,29.79,ENE,59,0.0,0.0,97,0.00,,---,0.00,VWS V13.01,2013-05-02 12:07:00,
2013-05-02 08:12:00,65.7,64.8,29.79,ENE,59,0.0,0.0,97,0.00,,---,0.00,VWS V13.01,2013-05-02 12:12:00,
2013-05-02 08:17:00,65.8,65.2,29.79,ENE,59,0.0,0.0,98,0.00,,---,0.00,VWS V13.01,2013-05-02 12:17:00,
2013-05-02 08:22:00,65.9,65.3,29.80,ENE,59,0.0,0.0,98,0.00,,---,0.00,VWS V13.01,2013-05-02 12:22:00,
2013-05-02 08:28:00,66.1,65.5,29.80,ENE,59,0.0,0.0,98,0.00,,---,0.00,VWS V13.01,2013-05-02 12:28:00,
2013-05-02 08:33:00,66.1,65.5,29.80,ENE,59,0.0,1.0,98,0.00,,---,0.00,VWS V13.01,2013-05-02 12:33:00,
2013-05-02 08:38:00,66.1,65.5,29.80,ENE,59,0.0,0.0,98,0.00,,---,0.00,VWS V13.01,2013-05-02 12:38:00,
2013-05-02 08:43:00,66.1,65.5,29.80,ENE,59,0.0,0.0,98,0.00,,---,0.00,VWS V13.01,2013-05-02 12:43:00,
2013-05-02 08:48:00,66.2,65.3,29.79,ENE,59,0.0,0.0,97,0.00,,---,0.00,VWS V13.01,2013-05-02 12:48:00,
2013-05-02 08:53:00,66.4,65.5,29.79,ENE,61,0.0,1.0,97,0.00,,---,0.00,VWS V13.01,2013-05-02 12:53:00,
2013-05-02 08:58:00,66.7,66.1,29.79,ENE,61,0.0,1.0,98,0.00,,---,0.00,VWS V13.01,2013-05-02 12:58:00,
2013-05-02 09:03:00,66.8,66.2,29.79,NE,51,3.0,6.0,98,0.00,,---,0.00,VWS V13.01,2013-05-02 13:03:00,
2013-05-02 09:08:00,66.9,66.0,29.79,NE,51,0.0,0.0,97,0.00,,---,0.00,VWS V13.01,2013-05-02 13:08:00,
2013-05-02 09:13:00,67.0,66.1,29.79,NE,53,0.0,3.0,97,0.00,,---,0.00,VWS V13.01,2013-05-02 13:13:00,
2013-05-02 09:18:00,67.2,66.6,29.79,NE,52,1.0,3.0,98,0.00,,---,0.00,VWS V13.01,2013-05-02 13:18:00,
2013-05-02 09:23:00,67.4,66.8,29.79,NE,51,0.0,4.0,98,0.00,,---,0.00,VWS V13.01,2013-05-02 13:23:00,
2013-05-02 09:28:00,67.4,66.8,29.79,NE,53,0.0,3.0,98,0.00,,---,0.00,VWS V13.01,2013-05-02 13:28:00,
2013-05-02 09:33:00,67.6,66.7,29.79,North,10,3.0,3.0,97,0.00,,---,0.00,VWS V13.01,2013-05-02 13:33:00,
2013-05-02 09:38:00,67.7,66.8,29.79,NE,37,0.0,3.0,97,0.00,,---,0.00,VWS V13.01,2013-05-02 13:38:00,
2013-05-02 09:43:00,67.8,66.9,29.79,NE,38,3.0,5.0,97,0.00,,---,0.00,VWS V13.01,2013-05-02 13:43:00,
2013-05-02 09:48:00,68.1,67.5,29.80,NE,38,0.0,0.0,98,0.00,,---,0.00,VWS V13.01,2013-05-02 13:48:00,
2013-05-02 09:53:00,68.5,67.9,29.80,NE,39,0.0,0.0,98,0.00,,---,0.00,VWS V13.01,2013-05-02 13:53:00,
2013-05-02 09:58:00,68.6,67.7,29.80,NE,52,0.0,0.0,97,0.00,,---,0.00,VWS V13.01,2013-05-02 13:58:00,
2013-05-02 10:03:00,68.9,68.0,29.80,NE,51,0.0,3.0,97,0.00,,---,0.00,VWS V13.01,2013-05-02 14:03:00,
2013-05-02 10:08:00,69.2,68.3,29.80,NE,51,0.0,0.0,97,0.00,,---,0.00,VWS V13.01,2013-05-02 14:08:00,
2013-05-02 10:13:00,69.5,68.6,29.79,ENE,61,0.0,3.0,97,0.00,,---,0.00,VWS V13.01,2013-05-02 14:13:00,
2013-05-02 10:18:00,69.9,69.0,29.79,ENE,78,0.0,5.0,97,0.00,,---,0.00,VWS V13.01,2013-05-02 14:18:00,
2013-05-02 10:24:00,70.1,69.2,29.79,ENE,63,0.0,6.0,97,0.00,,---,0.00,VWS V13.01,2013-05-02 14:24:00,
2013-05-02 10:29:00,70.4,69.5,29.78,East,87,0.0,3.0,97,0.00,,---,0.00,VWS V13.01,2013-05-02 14:29:00,
2013-05-02 10:34:00,70.4,69.2,29.78,East,96,0.0,5.0,96,0.00,,---,0.00,VWS V13.01,2013-05-02 14:34:00,
2013-05-02 10:39:00,70.5,69.3,29.78,NE,50,0.0,3.0,96,0.00,,---,0.00,VWS V13.01,2013-05-02 14:39:00,
2013-05-02 10:44:00,70.3,68.8,29.79,East,94,0.0,6.0,95,0.00,,---,0.00,VWS V13.01,2013-05-02 14:44:00,
2013-05-02 10:49:00,70.4,68.9,29.79,ESE,117,0.0,0.0,95,0.00,,---,0.00,VWS V13.01,2013-05-02 14:49:00,
2013-05-02 10:54:00,70.4,68.6,29.79,ESE,107,0.0,4.0,94,0.00,,---,0.00,VWS V13.01,2013-05-02 14:54:00,
2013-05-02 10:59:00,70.3,68.5,29.79,East,98,0.0,5.0,94,0.00,,---,0.00,VWS V13.01,2013-05-02 14:59:00,
2013-05-02 11:04:00,70.3,68.2,29.79,NE,51,4.0,6.0,93,0.00,,---,0.00,VWS V13.01,2013-05-02 15:04:00,
2013-05-02 11:09:00,70.5,68.4,29.78,East,82,1.0,5.0,93,0.00,,---,0.00,VWS V13.01,2013-05-02 15:09:00,
2013-05-02 11:14:00,70.8,68.7,29.78,East,84,0.0,5.0,93,0.00,,---,0.00,VWS V13.01,2013-05-02 15:14:00,
2013-05-02 11:19:00,71.1,69.0,29.79,East,80,0.0,0.0,93,0.00,,---,0.00,VWS V13.01,2013-05-02 15:19:00,
2013-05-02 11:24:00,71.1,69.0,29.79,ENE,72,0.0,1.0,93,0.00,,---,0.00,VWS V13.01,2013-05-02 15:24:00,
2013-05-02 11:29:00,71.2,68.8,29.78,ENE,73,1.0,3.0,92,0.00,,---,0.00,VWS V13.01,2013-05-02 15:29:00,
2013-05-02 11:34:00,71.3,68.9,29.78,ENE,73,0.0,3.0,92,0.00,,---,0.00,VWS V13.01,2013-05-02 15:34:00,
2013-05-02 11:39:00,71.3,68.9,29.78,ENE,74,0.0,0.0,92,0.00,,---,0.00,VWS V13.01,2013-05-02 15:39:00,
2013-05-02 11:44:00,71.3,68.9,29.78,ENE,72,0.0,1.0,92,0.00,,---,0.00,VWS V13.01,2013-05-02 15:44:00,
2013-05-02 11:49:00,71.5,69.1,29.77,ENE,72,0.0,1.0,92,0.00,,---,0.00,VWS V13.01,2013-05-02 15:49:00,
2013-05-02 11:54:00,71.7,69.3,29.77,ENE,75,0.0,4.0,92,0.00,,---,0.00,VWS V13.01,2013-05-02 15:54:00,
2013-05-02 11:59:00,71.9,69.4,29.77,ENE,72,3.0,3.0,92,0.00,,---,0.00,VWS V13.01,2013-05-02 15:59:00,
2013-05-02 12:04:00,72.2,69.8,29.77,East,80,0.0,3.0,92,0.00,,---,0.00,VWS V13.01,2013-05-02 16:04:00,
2013-05-02 12:09:00,72.5,69.7,29.77,East,88,0.0,1.0,91,0.00,,---,0.00,VWS V13.01,2013-05-02 16:09:00,
2013-05-02 12:14:00,72.5,69.7,29.77,East,84,0.0,5.0,91,0.00,,---,0.00,VWS V13.01,2013-05-02 16:14:00,
2013-05-02 12:19:00,72.6,69.8,29.76,ENE,68,3.0,3.0,91,0.00,,---,0.00,VWS V13.01,2013-05-02 16:19:00,
2013-05-02 12:24:00,72.6,69.8,29.76,ESE,121,0.0,5.0,91,0.00,,---,0.00,VWS V13.01,2013-05-02 16:24:00,
2013-05-02 12:29:00,72.6,69.8,29.76,East,83,0.0,0.0,91,0.00,,---,0.00,VWS V13.01,2013-05-02 16:29:00,
2013-05-02 12:34:00,72.6,69.8,29.76,East,88,0.0,0.0,91,0.00,,---,0.00,VWS V13.01,2013-05-02 16:34:00,
2013-05-02 12:39:00,72.5,70.1,29.76,ESE,123,0.0,1.0,92,0.00,,---,0.00,VWS V13.01,2013-05-02 16:39:00,
2013-05-02 12:44:00,72.7,69.9,29.76,ESE,123,0.0,1.0,91,0.00,,---,0.00,VWS V13.01,2013-05-02 16:44:00,
2013-05-02 12:49:00,72.9,70.4,29.75,ESE,123,0.0,0.0,92,0.00,,---,0.00,VWS V13.01,2013-05-02 16:49:00,
2013-05-02 12:54:00,73.3,70.5,29.75,SE,125,0.0,0.0,91,0.00,,---,0.00,VWS V13.01,2013-05-02 16:54:00,
2013-05-02 12:59:00,73.5,70.7,29.75,SE,125,0.0,3.0,91,0.00,,---,0.00,VWS V13.01,2013-05-02 16:59:00,
2013-05-02 13:04:00,73.7,70.9,29.75,SE,125,0.0,3.0,91,0.00,,---,0.00,VWS V13.01,2013-05-02 17:04:00,
2013-05-02 13:10:00,73.9,70.8,29.74,SE,124,0.0,0.0,90,0.00,,---,0.00,VWS V13.01,2013-05-02 17:10:00,
2013-05-02 13:15:00,74.0,70.9,29.74,East,98,0.0,0.0,90,0.00,,---,0.00,VWS V13.01,2013-05-02 17:15:00,
2013-05-02 13:20:00,74.4,71.6,29.74,East,98,0.0,0.0,91,0.00,,---,0.00,VWS V13.01,2013-05-02 17:20:00,
2013-05-02 13:25:00,74.9,71.8,29.74,ESE,107,0.0,4.0,90,0.00,,---,0.00,VWS V13.01,2013-05-02 17:25:00,
2013-05-02 13:30:00,74.9,71.4,29.74,ESE,122,0.0,1.0,89,0.00,,---,0.00,VWS V13.01,2013-05-02 17:30:00,
2013-05-02 13:35:00,75.1,71.6,29.74,SSE,148,0.0,1.0,89,0.00,,---,0.00,VWS V13.01,2013-05-02 17:35:00,
2013-05-02 13:40:00,75.5,72.0,29.74,SSE,148,0.0,0.0,89,0.00,,---,0.00,VWS V13.01,2013-05-02 17:40:00,
2013-05-02 13:45:00,75.8,72.3,29.74,SSE,148,0.0,0.0,89,0.00,,---,0.00,VWS V13.01,2013-05-02 17:45:00,
2013-05-02 13:50:00,75.9,72.1,29.74,SSE,148,0.0,0.0,88,0.00,,---,0.00,VWS V13.01,2013-05-02 17:50:00,
2013-05-02 13:55:00,75.9,72.1,29.74,SSE,148,0.0,0.0,88,0.00,,---,0.00,VWS V13.01,2013-05-02 17:55:00,
2013-05-02 14:00:00,75.7,71.9,29.74,SSE,148,0.0,0.0,88,0.00,,---,0.00,VWS V13.01,2013-05-02 18:00:00,
2013-05-02 14:05:00,75.3,71.5,29.74,SSE,148,0.0,0.0,88,0.00,,---,0.00,VWS V13.01,2013-05-02 18:05:00,
2013-05-02 14:10:00,74.9,71.8,29.74,SSE,148,0.0,0.0,90,0.00,,---,0.00,VWS V13.01,2013-05-02 18:10:00,
2013-05-02 14:15:00,74.6,71.5,29.73,SSE,148,0.0,0.0,90,0.00,,---,0.00,VWS V13.01,2013-05-02 18:15:00,
2013-05-02 14:20:00,74.4,71.6,29.73,SSE,148,0.0,0.0,91,0.00,,---,0.00,VWS V13.01,2013-05-02 18:20:00,
2013-05-02 14:25:00,74.3,71.5,29.72,SSE,148,0.0,1.0,91,0.00,,---,0.00,VWS V13.01,2013-05-02 18:25:00,
2013-05-02 14:30:00,74.3,71.5,29.72,SSE,148,0.0,0.0,91,0.00,,---,0.00,VWS V13.01,2013-05-02 18:30:00,
2013-05-02 14:35:00,74.5,71.7,29.71,SSE,148,0.0,0.0,91,0.00,,---,0.00,VWS V13.01,2013-05-02 18:35:00,
2013-05-02 14:40:00,74.7,71.9,29.71,SSE,148,0.0,0.0,91,0.00,,---,0.00,VWS V13.01,2013-05-02 18:40:00,
2013-05-02 14:45:00,75.1,72.3,29.71,SSE,148,0.0,0.0,91,0.00,,---,0.00,VWS V13.01,2013-05-02 18:45:00,
2013-05-02 14:50:00,75.2,72.4,29.71,SSE,148,0.0,0.0,91,0.00,,---,0.00,VWS V13.01,2013-05-02 18:50:00,
2013-05-02 14:55:00,75.3,72.5,29.71,NE,40,0.0,2.0,91,0.00,,---,0.00,VWS V13.01,2013-05-02 18:55:00,
2013-05-02 15:00:00,75.3,72.2,29.71,NE,40,0.0,0.0,90,0.00,,---,0.00,VWS V13.01,2013-05-02 19:00:00,
2013-05-02 15:05:00,75.4,72.3,29.71,NE,40,0.0,3.0,90,0.00,,---,0.00,VWS V13.01,2013-05-02 19:05:00,
2013-05-02 15:10:00,75.2,72.1,29.71,NE,40,0.0,2.0,90,0.00,,---,0.00,VWS V13.01,2013-05-02 19:10:00,
2013-05-02 15:15:00,75.3,72.2,29.71,ESE,109,0.0,3.0,90,0.00,,---,0.00,VWS V13.01,2013-05-02 19:15:00,
2013-05-02 15:20:00,75.2,72.1,29.71,NNE,32,0.0,5.0,90,0.00,,---,0.00,VWS V13.01,2013-05-02 19:20:00,
2013-05-02 15:25:00,75.5,72.4,29.71,NNE,32,0.0,5.0,90,0.00,,---,0.00,VWS V13.01,2013-05-02 19:25:00,
2013-05-02 15:30:00,75.7,72.6,29.71,NNE,32,0.0,0.0,90,0.00,,---,0.00,VWS V13.01,2013-05-02 19:30:00,
2013-05-02 15:35:00,76.0,73.2,29.71,NNW,340,0.0,0.0,91,0.00,,---,0.00,VWS V13.01,2013-05-02 19:35:00,
2013-05-02 15:40:00,76.1,72.3,29.70,North,9,0.0,4.0,88,0.00,,---,0.00,VWS V13.01,2013-05-02 19:40:00,
2013-05-02 15:45:00,76.1,72.3,29.71,NNE,24,0.0,6.0,88,0.00,,---,0.00,VWS V13.01,2013-05-02 19:45:00,
2013-05-02 15:50:00,76.1,72.6,29.70,NE,37,3.0,3.0,89,0.00,,---,0.00,VWS V13.01,2013-05-02 19:50:00,
2013-05-02 15:55:00,75.9,72.8,29.70,NNE,18,10.0,10.0,90,0.00,,---,0.00,VWS V13.01,2013-05-02 19:55:00,
2013-05-02 16:00:00,75.3,71.8,29.70,NNE,32,0.0,6.0,89,0.00,,---,0.00,VWS V13.01,2013-05-02 20:00:00,
2013-05-02 16:05:00,75.0,71.9,29.69,NNE,21,4.0,9.0,90,0.00,,---,0.00,VWS V13.01,2013-05-02 20:05:00,
2013-05-02 16:10:00,74.7,71.6,29.69,NNE,23,0.0,6.0,90,0.00,,---,0.00,VWS V13.01,2013-05-02 20:10:00,
2013-05-02 16:15:00,74.4,71.6,29.70,North,355,0.0,6.0,91,0.00,,---,0.00,VWS V13.01,2013-05-02 20:15:00,
2013-05-02 16:20:00,74.0,71.5,29.70,ESE,105,5.0,5.0,92,0.00,,---,0.00,VWS V13.01,2013-05-02 20:20:00,
2013-05-02 16:25:00,73.1,71.0,29.69,ENE,65,5.0,5.0,93,0.00,,---,0.00,VWS V13.01,2013-05-02 20:25:00,
2013-05-02 16:30:00,71.8,69.0,29.69,NE,52,0.0,7.0,91,0.00,,---,0.00,VWS V13.01,2013-05-02 20:30:00,
2013-05-02 16:35:00,71.1,69.0,29.69,NE,51,0.0,7.0,93,0.00,,---,0.00,VWS V13.01,2013-05-02 20:35:00,
2013-05-02 16:40:00,70.7,68.9,29.69,NE,55,0.0,4.0,94,0.00,,---,0.00,VWS V13.01,2013-05-02 20:40:00,
2013-05-02 16:45:00,70.3,68.5,29.69,SSE,167,3.0,4.0,94,0.00,,---,0.00,VWS V13.01,2013-05-02 20:45:00,
2013-05-02 16:50:00,70.1,68.3,29.69,ENE,59,0.0,5.0,94,0.00,,---,0.00,VWS V13.01,2013-05-02 20:50:00,
2013-05-02 16:55:00,70.2,68.7,29.69,SE,126,0.0,5.0,95,0.00,,---,0.00,VWS V13.01,2013-05-02 20:55:00,
2013-05-02 17:00:00,70.2,68.7,29.70,SE,126,0.0,0.0,95,0.00,,---,0.00,VWS V13.01,2013-05-02 21:00:00,
2013-05-02 17:05:00,70.0,68.5,29.70,SE,126,0.0,0.0,95,0.00,,---,0.00,VWS V13.01,2013-05-02 21:05:00,
2013-05-02 17:10:00,69.9,68.4,29.70,SE,126,0.0,0.0,95,0.00,,---,0.00,VWS V13.01,2013-05-02 21:10:00,
2013-05-02 17:15:00,69.4,67.9,29.70,SE,128,0.0,1.0,95,0.00,,---,0.00,VWS V13.01,2013-05-02 21:15:00,
2013-05-02 17:20:00,69.3,67.8,29.70,SE,128,0.0,0.0,95,0.00,,---,0.00,VWS V13.01,2013-05-02 21:20:00,
2013-05-02 17:25:00,69.2,67.7,29.70,SE,128,0.0,0.0,95,0.00,,---,0.00,VWS V13.01,2013-05-02 21:25:00,
2013-05-02 17:30:00,69.2,68.0,29.69,SE,128,0.0,0.0,96,0.00,,---,0.00,VWS V13.01,2013-05-02 21:30:00,
2013-05-02 17:35:00,69.0,67.8,29.69,SE,128,0.0,0.0,96,0.00,,---,0.00,VWS V13.01,2013-05-02 21:35:00,
2013-05-02 17:40:00,69.0,67.8,29.69,SE,128,0.0,0.0,96,0.00,,---,0.00,VWS V13.01,2013-05-02 21:40:00,
2013-05-02 17:45:00,69.0,67.8,29.69,SE,128,0.0,0.0,96,0.00,,---,0.00,VWS V13.01,2013-05-02 21:45:00,
2013-05-02 17:50:00,69.1,67.9,29.69,SE,128,0.0,0.0,96,0.00,,---,0.00,VWS V13.01,2013-05-02 21:50:00,
2013-05-02 17:55:00,69.2,68.0,29.68,SE,128,0.0,0.0,96,0.00,,---,0.00,VWS V13.01,2013-05-02 21:55:00,
2013-05-02 18:00:00,69.2,68.0,29.68,SE,128,0.0,0.0,96,0.00,,---,0.00,VWS V13.01,2013-05-02 22:00:00,
2013-05-02 18:05:00,69.2,68.0,29.68,SE,128,0.0,0.0,96,0.00,,---,0.00,VWS V13.01,2013-05-02 22:05:00,
2013-05-02 18:10:00,69.3,68.1,29.68,SE,128,0.0,0.0,96,0.00,,---,0.00,VWS V13.01,2013-05-02 22:10:00,
2013-05-02 18:15:00,69.4,68.2,29.68,SE,128,0.0,0.0,96,0.00,,---,0.00,VWS V13.01,2013-05-02 22:15:00,
2013-05-02 18:20:00,69.4,68.2,29.68,SE,128,0.0,0.0,96,0.01,,---,0.01,VWS V13.01,2013-05-02 22:20:00,
2013-05-02 18:25:00,69.3,68.1,29.68,ESE,111,0.0,1.0,96,0.01,,---,0.01,VWS V13.01,2013-05-02 22:25:00,
2013-05-02 18:30:00,69.3,68.1,29.68,NE,34,0.0,5.0,96,0.01,,---,0.01,VWS V13.01,2013-05-02 22:30:00,
2013-05-02 18:35:00,69.3,68.4,29.68,NE,35,0.0,5.0,97,0.01,,---,0.01,VWS V13.01,2013-05-02 22:35:00,
2013-05-02 18:40:00,69.2,68.3,29.68,NE,35,0.0,5.0,97,0.01,,---,0.01,VWS V13.01,2013-05-02 22:40:00,
2013-05-02 18:45:00,69.0,68.1,29.68,NE,35,0.0,5.0,97,0.01,,---,0.01,VWS V13.01,2013-05-02 22:45:00,
2013-05-02 18:50:00,68.8,67.6,29.68,NE,35,0.0,0.0,96,0.01,,---,0.01,VWS V13.01,2013-05-02 22:50:00,
2013-05-02 18:55:00,68.9,67.7,29.67,NE,35,0.0,0.0,96,0.01,,---,0.01,VWS V13.01,2013-05-02 22:55:00,
2013-05-02 19:00:00,68.9,68.0,29.67,NE,34,0.0,0.0,97,0.01,,---,0.01,VWS V13.01,2013-05-02 23:00:00,
2013-05-02 19:05:00,68.9,68.0,29.67,NE,35,0.0,0.0,97,0.01,,---,0.01,VWS V13.01,2013-05-02 23:05:00,
2013-05-02 19:10:00,68.8,67.9,29.68,NE,34,0.0,0.0,97,0.01,,---,0.01,VWS V13.01,2013-05-02 23:10:00,
2013-05-02 19:15:00,68.8,67.9,29.67,NE,35,0.0,0.0,97,0.01,,---,0.01,VWS V13.01,2013-05-02 23:15:00,
2013-05-02 19:20:00,68.8,67.9,29.67,NE,35,0.0,0.0,97,0.01,,---,0.01,VWS V13.01,2013-05-02 23:20:00,
2013-05-02 19:25:00,68.9,68.0,29.67,NE,35,0.0,0.0,97,0.01,,---,0.01,VWS V13.01,2013-05-02 23:25:00,
2013-05-02 19:30:00,69.0,68.1,29.68,NE,35,0.0,0.0,97,0.00,,---,0.01,VWS V13.01,2013-05-02 23:30:00,
2013-05-02 19:36:00,68.9,68.0,29.68,NE,34,0.0,0.0,97,0.00,,---,0.01,VWS V13.01,2013-05-02 23:36:00,
2013-05-02 19:41:00,68.8,67.9,29.68,NE,34,0.0,0.0,97,0.00,,---,0.01,VWS V13.01,2013-05-02 23:41:00,
2013-05-02 19:46:00,68.8,67.9,29.68,NE,34,0.0,0.0,97,0.00,,---,0.01,VWS V13.01,2013-05-02 23:46:00,
2013-05-02 19:51:00,68.8,67.9,29.68,NE,34,0.0,0.0,97,0.00,,---,0.01,VWS V13.01,2013-05-02 23:51:00,
2013-05-02 19:56:00,68.8,67.9,29.69,NE,35,0.0,0.0,97,0.00,,---,0.01,VWS V13.01,2013-05-02 23:56:00,
2013-05-02 20:01:00,68.9,68.0,29.69,NE,35,0.0,0.0,97,0.00,,---,0.01,VWS V13.01,2013-05-03 00:01:00,
2013-05-02 20:06:00,68.9,68.0,29.69,NE,35,0.0,0.0,97,0.00,,---,0.01,VWS V13.01,2013-05-03 00:06:00,
2013-05-02 20:11:00,68.9,68.0,29.69,ENE,75,0.0,2.0,97,0.00,,---,0.01,VWS V13.01,2013-05-03 00:11:00,
2013-05-02 20:16:00,68.7,67.8,29.69,ENE,78,0.0,0.0,97,0.00,,---,0.01,VWS V13.01,2013-05-03 00:16:00,
2013-05-02 20:21:00,68.5,67.6,29.69,ENE,78,0.0,0.0,97,0.00,,---,0.01,VWS V13.01,2013-05-03 00:21:00,
2013-05-02 20:26:00,68.5,67.6,29.69,East,79,0.0,0.0,97,0.00,,---,0.01,VWS V13.01,2013-05-03 00:26:00,
2013-05-02 20:31:00,68.4,67.5,29.68,SSE,156,0.0,1.0,97,0.00,,---,0.01,VWS V13.01,2013-05-03 00:31:00,
2013-05-02 20:36:00,68.3,67.4,29.69,SSE,157,0.0,0.0,97,0.00,,---,0.01,VWS V13.01,2013-05-03 00:36:00,
2013-05-02 20:41:00,68.2,67.3,29.69,SSE,157,0.0,0.0,97,0.00,,---,0.01,VWS V13.01,2013-05-03 00:41:00,
2013-05-02 20:46:00,68.0,67.1,29.69,SSE,156,0.0,0.0,97,0.00,,---,0.01,VWS V13.01,2013-05-03 00:46:00,
2013-05-02 20:51:00,68.0,67.1,29.69,SSE,157,0.0,0.0,97,0.00,,---,0.01,VWS V13.01,2013-05-03 00:51:00,
2013-05-02 20:56:00,68.0,67.1,29.68,SSE,157,0.0,0.0,97,0.00,,---,0.01,VWS V13.01,2013-05-03 00:56:00,
2013-05-02 21:01:00,68.0,67.1,29.68,SSE,157,0.0,0.0,97,0.00,,---,0.01,VWS V13.01,2013-05-03 01:01:00,
2013-05-02 21:06:00,68.0,67.1,29.68,SSE,157,0.0,0.0,97,0.00,,---,0.01,VWS V13.01,2013-05-03 01:06:00,
2013-05-02 21:11:00,68.0,67.1,29.68,SSE,157,0.0,0.0,97,0.00,,---,0.01,VWS V13.01,2013-05-03 01:11:00,
2013-05-02 21:16:00,68.1,67.2,29.69,SSE,157,0.0,0.0,97,0.00,,---,0.01,VWS V13.01,2013-05-03 01:16:00,
2013-05-02 21:21:00,68.2,67.3,29.69,SSE,157,0.0,0.0,97,0.00,,---,0.01,VWS V13.01,2013-05-03 01:21:00,
2013-05-02 21:26:00,68.2,67.3,29.69,SSE,157,0.0,0.0,97,0.00,,---,0.01,VWS V13.01,2013-05-03 01:26:00,
2013-05-02 21:31:00,68.3,67.4,29.69,SSE,157,0.0,0.0,97,0.00,,---,0.01,VWS V13.01,2013-05-03 01:31:00,
2013-05-02 21:36:00,68.3,67.4,29.69,SSE,157,0.0,0.0,97,0.00,,---,0.01,VWS V13.01,2013-05-03 01:36:00,
2013-05-02 21:41:00,68.3,67.4,29.69,SSE,157,0.0,0.0,97,0.00,,---,0.01,VWS V13.01,2013-05-03 01:41:00,
2013-05-02 21:46:00,68.4,67.5,29.70,SSE,157,0.0,0.0,97,0.00,,---,0.01,VWS V13.01,2013-05-03 01:46:00,
2013-05-02 21:51:00,68.5,67.9,29.70,SSE,157,0.0,0.0,98,0.00,,---,0.01,VWS V13.01,2013-05-03 01:51:00,
2013-05-02 21:56:00,68.5,67.9,29.70,SSE,157,0.0,0.0,98,0.00,,---,0.01,VWS V13.01,2013-05-03 01:56:00,
2013-05-02 22:01:00,68.5,67.9,29.69,SSE,157,0.0,0.0,98,0.00,,---,0.01,VWS V13.01,2013-05-03 02:01:00,
2013-05-02 22:06:00,68.5,67.9,29.70,SSE,157,0.0,0.0,98,0.00,,---,0.01,VWS V13.01,2013-05-03 02:06:00,
2013-05-02 22:11:00,68.6,68.0,29.70,SSE,157,0.0,0.0,98,0.00,,---,0.01,VWS V13.01,2013-05-03 02:11:00,
2013-05-02 22:16:00,68.6,68.0,29.70,SSE,157,0.0,0.0,98,0.00,,---,0.01,VWS V13.01,2013-05-03 02:16:00,
2013-05-02 22:21:00,68.5,67.9,29.70,SSE,157,0.0,0.0,98,0.00,,---,0.01,VWS V13.01,2013-05-03 02:21:00,
2013-05-02 22:26:00,68.6,68.0,29.70,SSE,157,0.0,0.0,98,0.00,,---,0.01,VWS V13.01,2013-05-03 02:26:00,
2013-05-02 22:31:00,68.5,67.9,29.70,SSE,157,0.0,1.0,98,0.00,,---,0.01,VWS V13.01,2013-05-03 02:31:00,
2013-05-02 22:36:00,68.5,67.9,29.70,SSE,157,0.0,0.0,98,0.00,,---,0.01,VWS V13.01,2013-05-03 02:36:00,
2013-05-02 22:41:00,68.5,67.9,29.70,SSE,157,0.0,0.0,98,0.00,,---,0.01,VWS V13.01,2013-05-03 02:41:00,
2013-05-02 22:46:00,68.5,67.9,29.70,SSE,157,0.0,0.0,98,0.01,,---,0.02,VWS V13.01,2013-05-03 02:46:00,
2013-05-02 22:51:00,68.5,67.9,29.70,SSE,157,0.0,1.0,98,0.01,,---,0.02,VWS V13.01,2013-05-03 02:51:00,
2013-05-02 22:56:00,68.5,67.9,29.70,SSE,156,0.0,0.0,98,0.01,,---,0.02,VWS V13.01,2013-05-03 02:56:00,
2013-05-02 23:01:00,68.5,67.9,29.70,SSE,157,0.0,0.0,98,0.01,,---,0.02,VWS V13.01,2013-05-03 03:01:00,
2013-05-02 23:06:00,68.5,67.9,29.70,SSE,156,0.0,0.0,98,0.01,,---,0.02,VWS V13.01,2013-05-03 03:06:00,
2013-05-02 23:11:00,68.5,67.9,29.70,SSE,159,0.0,1.0,98,0.01,,---,0.02,VWS V13.01,2013-05-03 03:11:00,
2013-05-02 23:16:00,68.6,68.0,29.70,SSE,159,0.0,0.0,98,0.01,,---,0.02,VWS V13.01,2013-05-03 03:16:00,
2013-05-02 23:21:00,68.7,68.1,29.70,SSE,159,0.0,0.0,98,0.01,,---,0.02,VWS V13.01,2013-05-03 03:21:00,
2013-05-02 23:26:00,68.8,68.2,29.70,SSE,164,0.0,3.0,98,0.01,,---,0.02,VWS V13.01,2013-05-03 03:26:00,
2013-05-02 23:31:00,68.8,68.2,29.70,SSE,168,0.0,3.0,98,0.01,,---,0.02,VWS V13.01,2013-05-03 03:31:00,
2013-05-02 23:36:00,68.8,68.2,29.70,South,171,0.0,1.0,98,0.01,,---,0.02,VWS V13.01,2013-05-03 03:36:00,
2013-05-02 23:41:00,68.8,68.2,29.69,South,174,0.0,2.0,98,0.01,,---,0.02,VWS V13.01,2013-05-03 03:41:00,
2013-05-02 23:46:00,68.7,68.1,29.69,South,181,0.0,0.0,98,0.01,,---,0.02,VWS V13.01,2013-05-03 03:46:00,
2013-05-02 23:51:00,68.6,68.0,29.69,South,182,2.0,4.0,98,0.00,,---,0.02,VWS V13.01,2013-05-03 03:51:00,
2013-05-02 23:56:00,68.5,67.9,29.69,SSE,168,5.0,5.0,98,0.00,,---,0.02,VWS V13.01,2013-05-03 03:56:00,